| time (UTC) | temp F | wind direction | speed knots | gust knots | rain 1hr in | rain 24hr in | rain mn in | humidity % | barometer mb |
| 20260506103025 | 50 | 261 | 0.9 | 3.5 | 0.00 | 0.65 | 0.17 | 100 | 1004.4 |
| 20260506101512 | 51 | 269 | 1.7 | 6.1 | 0.00 | 0.65 | 0.17 | 100 | 1004.3 |
| 20260506100007 | 51 | 332 | 3.5 | 6.1 | 0.00 | 0.65 | 0.17 | 100 | 1004.2 |
| 20260506094504 | 51 | 261 | 0.0 | 4.3 | 0.01 | 0.65 | 0.17 | 100 | 1004.2 |
| 20260506093059 | 51 | 213 | 1.7 | 4.3 | 0.03 | 0.65 | 0.17 | 100 | 1004.2 |
| 20260506091555 | 50 | 257 | 1.7 | 4.3 | 0.05 | 0.65 | 0.17 | 100 | 1004.1 |
| 20260506090053 | 50 | 226 | 0.0 | 3.5 | 0.05 | 0.65 | 0.17 | 100 | 1004.1 |
| 20260506084548 | 50 | 207 | 0.0 | 2.6 | 0.04 | 0.65 | 0.16 | 100 | 1004.1 |
| 20260506083044 | 49 | 234 | 0.0 | 2.6 | 0.02 | 0.63 | 0.14 | 100 | 1004.0 |
| 20260506081540 | 50 | 260 | 0.9 | 1.7 | 0.01 | 0.61 | 0.12 | 100 | 1003.9 |
| 20260506073030 | 50 | 264 | 0.0 | 1.7 | 0.01 | 0.61 | 0.12 | 100 | 1003.7 |
| 20260506071525 | 49 | 264 | 0.0 | 1.7 | 0.00 | 0.60 | 0.11 | 100 | 1003.7 |
| 20260506061513 | 48 | 266 | 0.0 | 2.6 | 0.01 | 0.60 | 0.11 | 100 | 1003.7 |
| 20260506044604 | 48 | 287 | 0.0 | 1.7 | 0.01 | 0.57 | 0.09 | 100 | 1003.7 |
| 20260506043047 | 48 | 287 | 0.0 | 1.7 | 0.00 | 0.56 | 0.09 | 100 | 1003.6 |
| 20260506041542 | 48 | 287 | 0.0 | 0.9 | 0.00 | 0.56 | 0.09 | 100 | 1003.6 |
| 20260506040036 | 48 | 287 | 0.0 | 1.7 | 0.00 | 0.56 | 0.09 | 100 | 1003.7 |
| 20260506034534 | 48 | 287 | 0.0 | 0.9 | 0.00 | 0.56 | 0.09 | 100 | 1003.7 |
| 20260506033027 | 49 | 288 | 0.0 | 3.5 | 0.00 | 0.56 | 0.09 | 100 | 1003.7 |
| 20260506031525 | 49 | 243 | 0.0 | 2.6 | 0.00 | 0.56 | 0.09 | 100 | 1003.8 |
| 20260506030029 | 49 | 242 | 0.0 | 2.6 | 0.00 | 0.56 | 0.09 | 100 | 1003.8 |
| 20260506024534 | 49 | 242 | 0.9 | 2.6 | 0.00 | 0.56 | 0.09 | 100 | 1003.9 |
| 20260506023012 | 49 | 242 | 0.0 | 3.5 | 0.00 | 0.56 | 0.09 | 100 | 1004.0 |
| 20260506021509 | 49 | 239 | 0.0 | 2.6 | 0.00 | 0.56 | 0.09 | 100 | 1004.1 |
| 20260506020001 | 49 | 239 | 0.0 | 2.6 | 0.00 | 0.56 | 0.09 | 100 | 1004.2 |
| 20260506014557 | 49 | 238 | 0.9 | 3.5 | 0.00 | 0.56 | 0.09 | 100 | 1004.2 |
| 20260506013053 | 49 | 238 | 0.9 | 2.6 | 0.01 | 0.56 | 0.09 | 100 | 1004.3 |
| 20260506011548 | 49 | 241 | 0.9 | 2.6 | 0.01 | 0.56 | 0.09 | 100 | 1004.3 |
| 20260506010047 | 49 | 242 | 0.9 | 3.5 | 0.01 | 0.56 | 0.09 | 100 | 1004.3 |
| 20260506004541 | 49 | 242 | 0.0 | 2.6 | 0.02 | 0.56 | 0.09 | 100 | 1004.3 |
| 20260506003039 | 49 | 239 | 1.7 | 3.5 | 0.02 | 0.56 | 0.08 | 100 | 1004.3 |
| 20260506001538 | 49 | 347 | 0.9 | 2.6 | 0.02 | 0.56 | 0.08 | 100 | 1004.5 |
| 20260506000030 | 50 | 355 | 0.0 | 0.9 | 0.02 | 0.56 | 0.08 | 100 | 1004.5 |
| 20260505234530 | 50 | 355 | 0.0 | 0.9 | 0.02 | 0.56 | 0.07 | 100 | 1004.7 |
| 20260505233022 | 50 | 355 | 0.0 | 2.6 | 0.02 | 0.55 | 0.06 | 100 | 1004.7 |
| 20260505231518 | 50 | 355 | 0.9 | 2.6 | 0.03 | 0.55 | 0.06 | 100 | 1004.7 |
| 20260505230032 | 50 | 355 | 0.9 | 2.6 | 0.07 | 0.55 | 0.06 | 100 | 1004.8 |
| 20260505224511 | 50 | 360 | 0.0 | 1.7 | 0.08 | 0.54 | 0.05 | 100 | 1004.7 |
| 20260505223006 | 50 | 360 | 0.0 | 2.6 | 0.16 | 0.54 | 0.05 | 100 | 1004.8 |
| 20260505221502 | 51 | 323 | 0.0 | 2.6 | 0.21 | 0.52 | 0.03 | 100 | 1004.8 |
| 20260505220006 | 51 | 324 | 0.0 | 1.7 | 0.22 | 0.50 | 0.49 | 100 | 1004.9 |
| 20260505214502 | 52 | 324 | 0.0 | 0.0 | 0.21 | 0.47 | 0.46 | 100 | 1005.0 |
| 20260505213102 | 52 | 324 | 0.0 | 2.6 | 0.17 | 0.42 | 0.40 | 100 | 1005.1 |
| 20260505211554 | 52 | 266 | 0.0 | 2.6 | 0.09 | 0.33 | 0.31 | 100 | 1005.1 |
| 20260505210043 | 52 | 266 | 0.0 | 0.9 | 0.07 | 0.30 | 0.28 | 100 | 1005.3 |
| 20260505204539 | 53 | 264 | 0.0 | 0.0 | 0.05 | 0.27 | 0.25 | 100 | 1005.4 |
| 20260505203035 | 53 | 264 | 0.0 | 0.0 | 0.05 | 0.25 | 0.24 | 100 | 1005.4 |
| 20260505201530 | 53 | 264 | 0.0 | 0.0 | 0.04 | 0.24 | 0.22 | 100 | 1005.5 |
| 20260505200029 | 53 | 264 | 0.0 | 0.0 | 0.04 | 0.23 | 0.21 | 100 | 1005.3 |
| 20260505194524 | 53 | 264 | 0.0 | 0.0 | 0.04 | 0.22 | 0.20 | 100 | 1005.3 |
| 20260505193019 | 53 | 264 | 0.0 | 0.0 | 0.04 | 0.21 | 0.20 | 100 | 1005.4 |
| 20260505191515 | 53 | 264 | 0.0 | 0.0 | 0.04 | 0.20 | 0.19 | 100 | 1005.3 |
| 20260505190014 | 53 | 265 | 0.0 | 0.0 | 0.03 | 0.19 | 0.17 | 100 | 1005.4 |
| 20260505184510 | 54 | 265 | 0.0 | 0.0 | 0.03 | 0.18 | 0.17 | 100 | 1005.4 |
| 20260505183005 | 54 | 264 | 0.0 | 0.0 | 0.03 | 0.17 | 0.16 | 100 | 1005.4 |
| 20260505181503 | 54 | 265 | 0.0 | 0.0 | 0.04 | 0.17 | 0.15 | 100 | 1005.4 |
| 20260505180106 | 54 | 265 | 0.0 | 0.0 | 0.05 | 0.16 | 0.14 | 100 | 1005.6 |
| 20260505174609 | 55 | 265 | 0.0 | 0.0 | 0.04 | 0.15 | 0.13 | 100 | 1005.6 |
| 20260505173051 | 55 | 265 | 0.0 | 0.0 | 0.06 | 0.14 | 0.13 | 100 | 1005.5 |
| 20260505171550 | 55 | 264 | 0.0 | 0.9 | 0.06 | 0.13 | 0.11 | 100 | 1005.6 |
| 20260505170045 | 55 | 265 | 0.0 | 1.7 | 0.06 | 0.13 | 0.10 | 100 | 1005.6 |
| 20260505164542 | 56 | 267 | 0.0 | 1.7 | 0.06 | 0.12 | 0.09 | 100 | 1005.7 |
| 20260505163036 | 56 | 268 | 0.0 | 0.9 | 0.06 | 0.10 | 0.08 | 100 | 1005.8 |
| 20260505161532 | 56 | 267 | 0.0 | 1.7 | 0.05 | 0.08 | 0.06 | 100 | 1005.9 |
| 20260505153019 | 58 | 310 | 0.0 | 1.7 | 0.01 | 0.07 | 0.02 | 100 | 1005.8 |
| 20260505151514 | 58 | 309 | 0.0 | 0.0 | 0.00 | 0.06 | 0.01 | 100 | 1005.9 |
| 20260505124536 | 59 | 312 | 1.7 | 3.5 | 0.01 | 0.12 | 0.01 | 2 | 1007.0 |
| 20260505123035 | 59 | 331 | 2.6 | 4.3 | 0.01 | 0.12 | 0.01 | 8 | 1007.0 |
| 20260505121528 | 60 | 278 | 1.7 | 4.3 | 0.01 | 0.12 | 0.01 | 3 | 1007.2 |
| 20260505120026 | 60 | 298 | 1.7 | 4.3 | 0.00 | 0.12 | 0.00 | 9 | 1007.2 |
| 20260505114520 | 60 | 321 | 1.7 | 4.3 | 0.00 | 0.12 | 0.00 | 5 | 1007.3 |
| 20260505113015 | 60 | 299 | 0.9 | 3.5 | 0.00 | 0.12 | 0.00 | 3 | 1007.5 |
| 20260505111518 | 60 | 287 | 2.6 | 4.3 | 0.00 | 0.12 | 0.00 | 100 | 1007.5 |